User: anonymous   Login
Location: Unspecified
(0.0000°N, 0.0000°E)
Time: 00:46:57
(UTC+00:00)
Language:

RISAT 1 - Orbit

View from above orbital plane
View from above orbital plane
View from above satellite
View from above satellite

Ground track
Ground track

The orbit data is extracted from the following two-line orbital elements,

1 38248U 12017A   17295.53152380  .00000156  00000-0  13780-4 0  9992
2 38248  97.5742 301.5961 0004062 350.7443 122.8662 15.09269892302445
Epoch (UTC): 22 October 2017 12:45:23
Eccentricity: 0.0004062
inclination: 97.5742°
perigee height: 535 km
apogee height: 541 km
right ascension of ascending node: 301.5961°
argument of perigee: 350.7443°
revolutions per day: 15.09269892
mean anomaly at epoch: 122.8662°
orbit number at epoch: 30244

The dashed part of the orbit path shows where the satellite is in the earth's shadow,  

DLR